Wind_Speed
9 9 9 8 8 12 11 9 9 10 10 9 9 8 8 10 10 9 8 9 7 9 9 9 9 10 10 9 9 8 8 7 7 6 5 5 4 3 3 3 2 2 2 2 2 1 2 1 0
9 8 8 8 11 12 9 8 11 11 11 10 9 9 9 10 11 10 10 9 8 9 9 10 10 10 10 10 10 9 8 8 8 7 6 5 4 3 2 2 1 1 1 1 1 1 1 0 0
8 7 8 8 10 10 7 9 12 12 12 10 9 9 9 10 10 11 10 10 9 9 9 10 10 11 11 11 10 10 9 9 8 7 6 5 4 3 2 2 1 1 0 0 0 0 1 1 1
7 7 8 8 8 5 8 10 11 11 12 12 10 9 9 10 11 11 10 10 9 9 10 11 11 12 12 11 11 11 10 10 9 8 7 6 5 4 3 2 2 1 1 1 1 1 2 2 2
5 6 7 7 6 6 9 10 9 9 11 12 12 12 11 12 12 12 11 11 9 9 10 11 12 12 13 12 12 12 11 11 10 9 8 7 5 4 3 3 2 2 2 2 2 2 2 2 3
4 6 7 7 5 6 9 11 9 9 11 13 13 13 12 13 12 12 12 12 10 9 11 11 12 13 13 13 13 12 12 11 10 9 8 7 6 5 4 3 2 2 3 3 3 3 3 3 3
4 6 6 5 4 7 9 10 9 10 12 13 13 14 13 13 13 13 13 13 11 10 11 12 12 14 15 14 13 13 13 12 11 10 9 8 7 6 5 4 3 3 3 3 3 3 3 3 3
4 3 3 3 4 7 11 9 9 11 12 12 13 14 15 14 15 14 14 14 12 10 10 12 13 14 14 15 15 14 13 13 12 11 10 9 8 6 6 5 4 4 3 3 3 3 3 3 3
3 2 3 2 4 8 11 10 10 12 13 13 13 15 16 16 16 15 15 15 14 12 11 11 13 13 14 15 16 16 15 14 12 11 10 9 8 7 6 5 5 4 4 3 3 3 3 3 3
2 2 2 2 6 9 12 11 9 11 13 16 17 16 18 17 16 17 17 17 16 14 13 12 12 13 14 16 16 17 16 15 14 12 11 9 8 7 6 6 5 4 3 3 3 2 2 2 2
4 4 4 6 9 11 10 10 10 12 13 16 17 18 18 18 18 18 19 19 18 16 15 13 13 14 15 16 17 17 17 16 15 13 11 10 9 8 7 6 5 4 3 3 2 2 2 2 2
7 6 7 8 9 10 9 9 10 12 14 16 17 19 20 20 20 20 21 19 19 18 17 15 15 15 15 17 19 19 18 17 16 14 12 11 10 9 8 6 5 4 3 3 2 1 1 1 1
8 8 8 9 10 10 10 10 10 12 13 15 17 19 20 20 22 22 22 20 20 19 18 17 17 15 15 16 17 18 18 16 16 14 13 11 10 9 8 6 5 4 3 2 1 0 0 1 1
8 10 10 9 9 9 10 10 12 14 13 16 19 20 21 22 23 23 23 20 21 19 17 17 15 13 13 15 18 18 18 16 15 14 13 11 10 9 7 6 5 4 3 2 1 0 1 1 1
9 9 8 8 7 9 11 12 15 15 15 18 20 21 21 22 23 22 21 19 19 17 16 16 13 13 12 14 17 17 17 15 15 14 13 11 10 8 7 5 4 4 3 2 1 0 1 1 2
8 8 9 8 7 9 12 13 16 16 16 20 21 21 21 22 22 20 20 18 17 15 15 15 13 12 12 12 15 16 16 16 15 14 13 11 10 8 7 6 5 4 3 2 1 0 1 1 2
7 9 10 9 9 10 13 14 15 17 17 21 22 21 22 21 20 19 19 17 15 14 14 14 13 12 11 11 15 17 17 17 16 14 13 12 10 9 8 7 6 4 3 2 1 1 0 1 2
7 9 10 9 11 14 16 14 15 16 18 21 22 22 21 20 19 19 18 16 12 12 11 11 10 11 11 11 13 15 16 16 16 15 13 12 11 10 9 8 7 5 4 3 2 2 1 0 1
10 11 12 11 13 17 17 14 15 17 17 19 21 21 19 18 18 18 16 13 10 9 9 8 9 10 11 11 13 14 16 16 16 15 14 13 12 11 9 8 7 6 5 4 3 2 1 1 1
14 14 14 15 17 18 17 14 16 18 16 18 21 21 19 18 17 16 14 11 9 9 8 7 8 9 10 11 13 15 16 16 16 15 14 13 12 11 10 9 8 7 6 5 4 3 2 1 1
15 15 14 16 16 16 15 13 16 17 16 16 19 19 19 17 16 14 12 10 10 9 8 8 8 9 10 11 13 15 16 16 15 14 14 14 13 12 10 10 9 8 7 6 5 3 3 2 1
16 15 15 16 16 15 15 15 16 19 17 16 17 18 18 17 16 13 11 10 10 8 7 7 7 9 10 11 13 14 15 15 14 14 16 15 14 13 12 11 10 9 8 7 6 4 3 2 1
16 16 16 16 17 15 14 13 15 17 16 16 17 18 18 17 15 12 11 10 9 7 6 6 6 7 9 10 12 14 15 15 15 15 16 15 15 14 13 12 10 10 9 8 7 6 5 3 2
16 15 15 15 14 13 12 13 14 17 19 16 18 19 18 16 14 12 10 9 8 6 5 5 6 7 8 10 12 14 15 16 16 16 16 15 15 14 13 13 12 11 10 10 9 8 7 5 4
16 15 14 13 12 12 12 11 12 16 18 17 19 20 18 15 13 11 9 8 7 6 5 5 5 6 7 10 13 14 15 15 15 16 16 15 15 14 14 14 13 12 11 11 10 10 9 7 6
16 15 15 14 14 15 13 12 11 14 16 18 19 19 17 14 12 11 9 8 7 6 5 5 5 6 7 10 13 14 15 15 16 16 16 16 15 15 14 14 13 13 12 12 12 11 11 10 9
16 16 14 16 15 16 14 12 13 15 16 17 18 17 14 13 12 11 10 9 7 6 5 5 5 6 7 9 11 13 14 15 16 17 17 16 15 15 14 14 13 13 13 13 13 13 13 12 12
17 16 16 17 17 17 15 17 19 15 15 16 16 16 14 12 11 11 10 9 7 6 6 5 4 6 7 8 10 12 13 14 15 16 17 16 16 15 15 14 14 14 14 14 15 15 15 15 15
15 17 18 18 18 17 17 18 18 15 15 14 16 16 14 13 12 11 10 9 7 6 6 4 3 5 7 8 9 11 12 14 15 15 16 16 16 16 15 15 15 14 14 15 16 17 17 17 18
16 16 18 20 20 19 19 18 17 14 13 13 17 17 16 15 13 11 10 10 8 6 5 4 4 4 7 7 8 10 11 13 14 14 16 16 16 16 16 16 16 15 16 16 17 18 19 19 19
Wind_Direction
46 49 53 54 54 49 41 7 341 334 338 340 338 326 311 305 308 306 301 289 275 263 250 238 230 226 221 218 217 219 227 228 223 216 208 194 176 157 142 135 123 112 98 85 79 74 74 79 86
48 51 57 51 49 43 22 344 330 336 342 344 345 334 321 315 313 308 301 294 282 269 256 245 238 233 227 223 222 224 231 234 230 223 215 202 192 179 166 156 145 129 111 88 65 53 58 87 226
48 52 59 53 50 29 352 330 331 340 345 346 342 334 325 320 315 308 302 297 286 273 260 248 242 237 230 226 225 228 232 234 233 229 224 215 205 200 191 182 178 174 172 355 324 281 277 255 252
47 55 61 57 59 13 324 319 331 341 341 345 339 331 324 325 318 312 304 297 287 274 261 249 244 240 235 230 228 230 233 235 234 234 232 226 215 211 204 204 203 220 256 289 287 276 262 255 253
48 52 44 50 42 351 316 317 329 335 334 341 339 329 331 329 323 314 307 298 288 275 263 254 247 243 239 234 231 232 233 235 238 238 236 230 225 223 220 223 228 249 264 280 288 276 261 256 257
26 34 40 40 20 322 311 323 333 326 326 335 335 323 329 328 329 321 310 302 291 281 268 258 252 246 243 236 233 233 234 236 236 238 237 234 231 231 233 240 253 269 273 276 279 276 266 261 262
14 28 39 30 344 310 306 317 323 321 324 331 331 322 324 332 332 328 315 307 300 290 273 257 254 249 245 238 233 231 232 234 234 235 236 236 234 234 239 246 258 269 277 280 280 276 267 261 264
14 32 47 34 325 300 299 317 317 318 320 326 326 324 328 336 331 329 320 313 308 299 282 263 256 251 243 236 231 230 231 233 233 235 236 238 238 241 244 251 259 267 276 280 279 273 264 263 271
10 44 62 40 310 292 293 304 311 318 320 321 319 321 331 331 329 325 321 315 312 304 290 271 260 253 244 236 231 230 230 230 232 234 236 238 240 244 246 251 256 263 269 272 277 272 272 274 278
344 2 24 280 248 262 282 296 306 310 310 312 315 320 328 327 325 321 316 312 309 302 292 279 265 257 249 237 232 230 230 229 229 231 234 238 238 241 246 251 250 258 263 267 278 283 288 288 282
313 301 282 266 261 261 273 294 303 299 302 307 313 319 323 322 321 318 314 311 305 298 289 282 272 260 247 236 231 230 230 229 227 228 233 239 240 242 245 244 242 252 259 267 279 287 298 302 301
299 290 277 271 275 278 281 284 283 291 299 309 312 317 318 319 320 317 314 309 303 298 291 288 274 260 245 232 227 227 224 227 227 226 231 240 243 241 239 239 236 245 256 262 276 296 308 309 321
293 289 288 286 288 290 288 289 288 287 290 301 306 311 314 313 315 314 310 304 300 295 286 281 278 269 247 229 223 226 224 224 224 224 232 238 243 241 237 231 233 236 239 239 242 275 351 335 338
287 285 284 283 286 291 293 297 291 290 294 303 309 311 313 313 312 313 312 303 300 295 280 276 274 262 245 228 221 224 224 223 223 224 231 233 234 234 230 227 230 226 222 214 182 117 64 36 19
290 286 287 288 289 294 297 294 289 292 304 310 313 314 316 316 315 314 314 307 301 296 281 273 271 257 238 228 225 222 219 219 220 223 228 228 227 230 223 222 223 214 210 196 179 85 67 46 26
294 296 296 295 285 289 294 295 295 298 305 309 313 316 317 318 317 315 313 310 302 294 281 273 267 256 239 231 222 217 216 215 214 222 227 224 224 223 220 219 209 199 206 199 195 8 81 64 42
300 309 306 301 277 273 283 290 294 299 303 307 313 317 318 318 319 319 316 313 301 289 283 277 265 253 239 231 222 216 215 213 212 220 222 220 219 219 217 214 209 210 213 204 213 237 111 60 42
275 279 279 272 275 277 283 284 286 293 300 304 312 317 318 319 319 321 318 313 301 292 285 279 263 245 236 229 224 216 212 213 213 217 216 216 215 215 211 209 211 215 220 217 215 211 169 79 47
261 255 262 260 259 268 278 282 284 290 297 304 312 316 317 319 321 321 319 313 306 299 289 271 253 242 235 229 223 217 215 214 213 215 215 212 210 209 207 209 213 218 217 216 207 202 194 166 62
259 254 248 247 252 266 277 279 280 285 297 306 315 319 319 320 321 321 317 314 306 300 289 268 255 245 232 226 219 216 215 210 211 213 214 209 208 208 209 209 211 215 216 215 209 205 200 179 112
260 253 249 251 257 269 279 281 284 292 297 305 315 319 320 322 325 325 319 315 309 300 285 273 258 246 235 227 216 215 215 212 213 216 212 209 209 208 207 208 211 216 217 214 210 202 191 177 146
257 255 251 253 255 258 266 277 290 297 302 312 319 318 321 324 325 325 323 318 313 304 286 269 253 244 238 230 223 220 218 218 216 218 213 212 213 211 209 208 212 215 214 212 209 204 198 192 196
253 251 254 256 258 254 253 264 284 294 300 307 314 316 320 322 324 326 324 325 322 308 293 271 251 240 237 231 224 218 217 219 220 218 212 213 213 212 212 213 216 216 214 214 213 211 210 211 225
252 250 253 257 258 257 253 259 271 286 295 302 307 312 317 319 322 325 325 330 329 318 299 277 255 244 235 223 218 215 218 220 219 215 210 211 212 213 216 216 216 216 216 217 218 217 218 224 237
247 246 246 256 264 272 264 253 260 275 291 300 303 307 313 316 322 325 324 330 330 320 306 283 263 246 228 219 216 216 217 219 214 212 211 211 212 215 218 217 216 218 221 221 221 222 226 233 244
242 241 241 246 266 280 284 273 268 272 287 295 299 303 307 310 318 321 323 326 327 318 304 280 265 245 227 220 216 216 215 217 215 214 214 212 212 215 219 219 219 221 226 228 228 230 234 240 249
231 238 241 250 254 269 280 280 268 267 286 295 300 302 303 307 313 317 320 321 323 320 310 284 255 240 231 222 219 216 213 216 217 215 213 213 215 217 220 221 223 227 232 234 236 238 243 247 252
229 227 234 239 249 254 260 270 271 266 280 295 300 302 301 304 309 314 317 315 312 310 310 302 260 236 231 228 224 217 215 214 213 213 214 216 217 220 224 228 230 234 239 241 242 245 250 253 257
236 228 227 234 240 249 257 267 271 268 276 287 299 301 298 299 303 310 311 310 310 309 303 297 276 242 232 225 222 219 218 215 216 217 214 216 221 225 230 233 236 240 245 247 248 251 254 257 262
237 238 232 235 238 241 249 266 275 288 281 286 291 293 293 296 296 299 303 307 306 307 307 302 287 261 233 223 224 222 222 217 217 217 218 222 227 232 235 238 241 244 249 251 253 256 259 261 264
Height
5892 5891 5891 5891 5890 5889 5890 5892 5890 5888 5886 5885 5884 5883 5881 5880 5879 5880 5877 5877 5878 5877 5878 5879 5880 5882 5883 5884 5885 5886 5886 5887 5887 5887 5887 5887 5887 5887 5887 5887 5887 5887 5887 5887 5887 5887 5887 5886 5886
5892 5892 5892 5891 5888 5889 5891 5892 5890 5888 5887 5885 5884 5883 5881 5879 5879 5878 5877 5877 5877 5877 5877 5878 5879 5881 5882 5883 5884 5885 5886 5887 5887 5887 5887 5888 5888 5888 5888 5888 5888 5888 5887 5887 5887 5887 5887 5887 5887
5893 5893 5892 5891 5890 5891 5893 5892 5890 5888 5886 5885 5884 5883 5881 5880 5879 5878 5877 5876 5877 5876 5877 5877 5878 5880 5881 5882 5884 5885 5886 5886 5887 5887 5887 5887 5887 5888 5888 5888 5888 5888 5888 5887 5887 5887 5887 5887 5887
5893 5893 5892 5892 5892 5894 5894 5893 5890 5888 5887 5885 5884 5882 5880 5879 5879 5878 5876 5876 5876 5876 5876 5876 5877 5878 5880 5881 5883 5884 5885 5886 5886 5887 5887 5887 5887 5887 5888 5888 5887 5888 5888 5887 5887 5887 5887 5887 5887
5893 5893 5892 5892 5893 5895 5895 5893 5890 5889 5887 5885 5884 5881 5880 5879 5878 5877 5875 5875 5875 5875 5875 5875 5876 5877 5878 5880 5881 5883 5884 5885 5886 5886 5886 5887 5887 5887 5887 5887 5887 5887 5887 5887 5887 5887 5887 5887 5886
5894 5892 5892 5892 5895 5896 5895 5892 5891 5889 5887 5885 5883 5880 5879 5878 5876 5876 5874 5873 5873 5874 5873 5874 5875 5876 5877 5878 5880 5881 5883 5884 5885 5886 5886 5886 5887 5887 5887 5887 5887 5887 5887 5887 5887 5887 5886 5886 5886
5894 5893 5893 5894 5896 5896 5895 5892 5891 5889 5887 5885 5883 5880 5877 5877 5876 5875 5873 5872 5872 5872 5871 5872 5873 5874 5875 5877 5878 5880 5881 5883 5884 5885 5885 5886 5886 5886 5887 5887 5887 5887 5887 5887 5887 5886 5886 5886 5886
5893 5893 5893 5894 5896 5896 5894 5892 5890 5888 5887 5885 5883 5880 5877 5876 5875 5873 5872 5870 5870 5870 5870 5870 5871 5872 5873 5874 5876 5878 5880 5881 5883 5883 5884 5885 5886 5886 5886 5886 5886 5886 5886 5886 5886 5886 5886 5885 5885
5892 5894 5892 5894 5897 5896 5893 5892 5890 5888 5886 5883 5881 5878 5877 5876 5874 5872 5871 5869 5868 5867 5867 5868 5868 5869 5871 5872 5874 5876 5878 5879 5881 5882 5883 5884 5885 5885 5885 5885 5885 5886 5886 5886 5886 5885 5885 5885 5885
5892 5892 5892 5894 5895 5895 5892 5891 5890 5888 5885 5882 5878 5876 5876 5874 5873 5871 5869 5867 5865 5865 5864 5865 5866 5867 5868 5870 5872 5874 5876 5878 5879 5881 5882 5883 5884 5884 5884 5885 5885 5885 5885 5885 5885 5885 5885 5885 5885
5890 5891 5891 5892 5892 5891 5890 5890 5889 5887 5883 5881 5878 5876 5875 5873 5872 5869 5867 5865 5863 5862 5861 5862 5862 5862 5864 5866 5869 5871 5874 5876 5878 5880 5881 5882 5883 5883 5884 5884 5885 5885 5885 5885 5885 5885 5885 5885 5884
5889 5889 5889 5889 5889 5888 5888 5887 5887 5885 5883 5880 5877 5875 5874 5872 5869 5867 5864 5862 5860 5859 5858 5857 5856 5858 5859 5862 5865 5868 5871 5873 5876 5878 5879 5880 5881 5882 5883 5884 5884 5884 5885 5885 5885 5885 5885 5884 5883
5887 5887 5887 5887 5886 5886 5886 5885 5884 5882 5881 5879 5877 5874 5872 5870 5867 5863 5861 5859 5857 5855 5854 5854 5854 5855 5856 5859 5861 5864 5868 5871 5874 5876 5878 5879 5880 5881 5882 5883 5884 5884 5884 5884 5884 5884 5885 5884 5884
5885 5885 5884 5884 5884 5884 5884 5883 5882 5879 5877 5876 5874 5872 5869 5867 5864 5860 5857 5854 5853 5851 5851 5851 5851 5852 5853 5855 5858 5861 5865 5869 5872 5874 5876 5877 5879 5880 5881 5882 5883 5884 5884 5884 5884 5884 5884 5884 5884
5882 5882 5882 5882 5882 5882 5883 5881 5879 5876 5875 5874 5872 5869 5867 5864 5860 5857 5854 5852 5850 5849 5848 5847 5848 5849 5851 5853 5855 5859 5863 5867 5870 5872 5875 5876 5878 5879 5880 5882 5883 5883 5884 5884 5884 5884 5884 5884 5884
5879 5880 5880 5880 5880 5881 5882 5880 5877 5874 5873 5872 5869 5867 5864 5861 5858 5855 5852 5850 5847 5846 5846 5845 5845 5847 5849 5851 5854 5857 5861 5865 5868 5871 5873 5875 5877 5878 5880 5881 5882 5883 5883 5884 5884 5884 5884 5884 5884
5877 5878 5878 5879 5878 5880 5880 5878 5876 5872 5871 5870 5867 5865 5862 5859 5856 5853 5850 5847 5845 5844 5844 5843 5844 5846 5848 5849 5852 5855 5859 5863 5866 5869 5872 5874 5876 5878 5879 5880 5881 5882 5883 5883 5884 5884 5884 5884 5884
5875 5877 5877 5878 5878 5878 5877 5876 5874 5871 5870 5868 5865 5862 5859 5856 5853 5850 5847 5845 5843 5842 5842 5841 5842 5844 5846 5848 5850 5854 5857 5861 5865 5868 5870 5873 5875 5876 5878 5880 5881 5882 5882 5882 5883 5883 5884 5884 5884
5872 5874 5875 5876 5877 5876 5874 5873 5872 5869 5867 5865 5862 5859 5856 5854 5851 5848 5845 5843 5841 5840 5840 5839 5841 5842 5844 5847 5849 5852 5856 5859 5863 5865 5868 5871 5873 5875 5877 5879 5880 5881 5882 5882 5882 5883 5883 5884 5884
5870 5871 5872 5874 5873 5873 5871 5870 5869 5866 5864 5863 5859 5856 5854 5852 5849 5846 5843 5842 5841 5840 5839 5839 5840 5841 5843 5846 5848 5851 5853 5856 5860 5863 5867 5870 5872 5874 5876 5878 5879 5880 5881 5882 5882 5883 5883 5884 5884
5866 5867 5868 5869 5869 5869 5868 5867 5864 5863 5861 5859 5857 5855 5852 5850 5847 5845 5842 5841 5840 5839 5838 5838 5839 5840 5842 5844 5846 5849 5852 5855 5858 5862 5865 5868 5870 5873 5875 5877 5878 5879 5880 5881 5882 5883 5883 5883 5884
5862 5863 5864 5865 5865 5865 5866 5864 5862 5859 5857 5856 5855 5853 5851 5848 5846 5843 5841 5840 5838 5837 5837 5837 5838 5839 5840 5842 5845 5848 5851 5854 5857 5860 5863 5866 5869 5871 5873 5875 5877 5878 5879 5881 5882 5882 5883 5883 5884
5858 5860 5860 5861 5861 5861 5862 5861 5861 5856 5854 5854 5853 5851 5849 5847 5844 5842 5840 5838 5836 5835 5835 5835 5836 5838 5839 5840 5843 5846 5849 5852 5855 5858 5861 5864 5867 5869 5871 5873 5875 5877 5878 5879 5881 5881 5882 5883 5884
5854 5856 5856 5857 5857 5858 5859 5858 5858 5855 5853 5852 5851 5850 5848 5846 5844 5841 5839 5837 5835 5834 5834 5834 5835 5836 5837 5839 5842 5844 5847 5850 5853 5856 5859 5862 5865 5867 5869 5872 5873 5875 5877 5878 5879 5880 5881 5882 5883
5851 5852 5854 5854 5855 5855 5854 5853 5855 5853 5852 5851 5850 5848 5847 5845 5842 5840 5838 5836 5835 5834 5834 5833 5834 5834 5836 5838 5840 5842 5845 5848 5851 5854 5857 5860 5863 5865 5868 5870 5871 5873 5875 5876 5878 5879 5880 5881 5882
5847 5849 5851 5852 5853 5851 5849 5849 5851 5850 5850 5850 5849 5847 5845 5843 5842 5839 5837 5836 5835 5834 5833 5833 5833 5834 5835 5836 5838 5841 5843 5846 5849 5852 5855 5858 5861 5863 5865 5868 5869 5871 5873 5875 5876 5877 5878 5879 5880
5843 5845 5848 5849 5849 5849 5848 5848 5848 5847 5847 5846 5846 5844 5843 5842 5841 5839 5837 5835 5834 5833 5832 5832 5832 5833 5834 5835 5836 5839 5841 5844 5847 5850 5853 5856 5859 5861 5863 5865 5867 5869 5871 5872 5874 5875 5876 5877 5878
5839 5842 5844 5845 5846 5846 5847 5846 5844 5842 5843 5843 5842 5842 5841 5840 5839 5838 5836 5834 5833 5832 5832 5831 5831 5832 5833 5834 5835 5837 5839 5842 5844 5847 5850 5853 5856 5858 5861 5863 5865 5866 5868 5870 5871 5873 5873 5874 5875
5836 5837 5839 5841 5843 5844 5844 5845 5840 5839 5839 5840 5839 5839 5839 5838 5837 5836 5835 5833 5832 5832 5831 5830 5830 5831 5832 5833 5834 5836 5837 5839 5842 5845 5848 5851 5853 5856 5858 5860 5862 5863 5865 5867 5868 5869 5870 5871 5871
5832 5833 5835 5837 5838 5839 5839 5842 5837 5836 5834 5836 5837 5837 5836 5836 5836 5835 5834 5833 5831 5831 5830 5830 5830 5830 5831 5832 5833 5834 5836 5838 5840 5842 5845 5848 5850 5852 5854 5856 5858 5860 5861 5863 5864 5865 5866 5867 5867